FW5487 Weather Reports


Display with metric or nautical units.
time (UTC)temp
F
wind
direction
speed
MPH
gust
MPH
rain 1hr
in
rain 24hr
in
rain mn
in
humidity
%
barometer
mb
20260902194704 100 217 1.0 6.0 0.00 0.00 0.00 34 1000.0
20260902194204 99 188 4.0 10.0 0.00 0.00 0.00 34 1000.0
20260902193704 99 276 2.0 7.0 0.00 0.00 0.00 35 1000.0
20260902193203 99 232 1.0 8.0 0.00 0.00 0.00 35 1000.0
20260902192704 99 261 5.0 8.0 0.00 0.00 0.00 35 1000.0
20260902192203 100 262 2.0 7.0 0.00 0.00 0.00 35 1000.0
20260902191703 100 229 2.0 8.0 0.00 0.00 0.00 34 1000.0
20260902191203 100 235 4.0 10.0 0.00 0.00 0.00 34 1000.0
20260902190204 99 241 6.0 10.0 0.00 0.00 0.00 35 1000.0
20260902185704 99 247 4.0 8.0 0.00 0.00 0.00 34 1000.0
20260902185205 99 201 5.0 10.0 0.00 0.00 0.00 34 1000.0
20260902184703 99 159 6.0 9.0 0.00 0.00 0.00 36 1000.0
20260902184204 98 190 7.0 10.0 0.00 0.00 0.00 35 1000.0
20260902183703 98 204 5.0 9.0 0.00 0.00 0.00 36 1000.0
20260902183204 99 219 3.0 7.0 0.00 0.00 0.00 36 1000.0
20260902182204 99 274 6.0 9.0 0.00 0.00 0.00 35 1000.0
20260902181203 98 251 6.0 12.0 0.00 0.00 0.00 37 1000.0
20260902180203 99 221 4.0 10.0 0.00 0.00 0.00 37 1000.0
20260902175204 98 205 5.0 12.0 0.00 0.00 0.00 38 1000.0
20260902174704 97 332 5.0 13.0 0.00 0.00 0.00 39 1000.0
20260902174203 97 210 6.0 12.0 0.00 0.00 0.00 40 1000.0
20260902173204 97 258 6.0 9.0 0.00 0.00 0.00 39 1000.0
20260902172203 97 214 5.0 14.0 0.00 0.00 0.00 40 1000.0
20260902171704 96 192 7.0 14.0 0.00 0.00 0.00 39 1000.0
20260902171204 97 223 6.0 13.0 0.00 0.00 0.00 40 1000.0
20260902170703 97 208 5.0 10.0 0.00 0.00 0.00 41 1000.0
20260902170204 96 269 7.0 12.0 0.00 0.00 0.00 40 1000.0
20260902165703 96 263 6.0 12.0 0.00 0.00 0.00 41 1000.0
20260902165207 96 217 6.0 10.0 0.00 0.00 0.00 42 1000.0
20260902163704 95 237 6.0 13.0 0.00 0.00 0.00 43 1000.0
20260902163204 95 212 7.0 14.0 0.00 0.00 0.00 43 1000.0
20260902161703 94 219 7.0 14.0 0.00 0.00 0.00 44 1000.0
20260902161203 94 141 5.0 12.0 0.00 0.00 0.00 44 1000.0
20260902160704 94 237 6.0 12.0 0.00 0.00 0.00 44 1000.0
20260902160204 94 215 7.0 10.0 0.00 0.00 0.00 45 1000.0
20260902155704 94 244 6.0 10.0 0.00 0.00 0.00 45 1000.0
20260902155204 93 199 8.0 13.0 0.00 0.00 0.00 45 1000.0
20260902154204 93 250 6.0 9.0 0.00 0.00 0.00 46 1000.0
20260902153204 92 217 7.0 16.0 0.00 0.00 0.00 47 1000.0
20260902151703 91 235 4.0 12.0 0.00 0.00 0.00 50 1000.0
20260902151204 90 196 6.0 10.0 0.00 0.00 0.00 51 1000.0
20260902150704 90 199 6.0 13.0 0.00 0.00 0.00 51 1000.0
20260902150203 90 203 6.0 13.0 0.00 0.00 0.00 52 1000.0
20260902145703 89 195 9.0 10.0 0.00 0.00 0.00 52 1000.0
20260902144704 89 205 7.0 14.0 0.00 0.00 0.00 54 1000.0
20260902144204 88 238 7.0 12.0 0.00 0.00 0.00 53 1000.0
20260902143203 88 199 9.0 13.0 0.00 0.00 0.00 54 1000.0
20260902142705 88 205 7.0 14.0 0.00 0.00 0.00 54 1000.0
20260902142204 88 199 6.0 12.0 0.00 0.00 0.00 55 1000.0
20260902141704 88 202 7.0 12.0 0.00 0.00 0.00 55 1000.0
20260902141204 87 196 6.0 12.0 0.00 0.00 0.00 56 1000.0
20260902140703 87 209 7.0 12.0 0.00 0.00 0.00 56 1000.0
20260902140203 87 187 9.0 15.0 0.00 0.00 0.00 56 1000.0
20260902135704 87 200 7.0 13.0 0.00 0.00 0.00 57 1000.0
20260902135204 86 173 6.0 12.0 0.00 0.00 0.00 58 1000.0
20260902134203 85 182 8.0 12.0 0.00 0.00 0.00 58 1000.0
20260902133704 85 199 5.0 12.0 0.00 0.00 0.00 59 1000.0
20260902133204 85 183 7.0 9.0 0.00 0.00 0.00 60 1000.0
20260902132704 85 202 6.0 9.0 0.00 0.00 0.00 60 1000.0
20260902132204 84 205 5.0 7.0 0.00 0.00 0.00 61 1000.0
20260902131703 84 201 4.0 9.0 0.00 0.00 0.00 62 1000.0
20260902131203 83 217 5.0 7.0 0.00 0.00 0.00 63 1000.0
20260902130704 82 198 5.0 7.0 0.00 0.00 0.00 64 1000.0
20260902130204 82 181 4.0 6.0 0.00 0.00 0.00 65 1000.0
20260902125703 81 180 5.0 7.0 0.00 0.00 0.00 66 1000.0
20260902124703 80 166 5.0 7.0 0.00 0.00 0.00 68 1000.0
20260902123704 80 143 5.0 7.0 0.00 0.00 0.00 70 1000.0
20260902122703 79 138 5.0 6.0 0.00 0.00 0.00 71 1000.0
20260902121704 79 138 6.0 7.0 0.00 0.00 0.00 74 1000.0
20260902121203 78 128 3.0 6.0 0.00 0.00 0.00 77 1000.0
20260902120704 78 124 5.0 6.0 0.00 0.00 0.00 77 1000.0
20260902115703 79 133 5.0 6.0 0.00 0.00 0.00 72 1000.0
20260902114704 80 139 3.0 6.0 0.00 0.00 0.00 70 1000.0
20260902114204 79 138 3.0 6.0 0.00 0.00 0.00 71 1000.0
20260902113703 80 113 3.0 6.0 0.00 0.00 0.00 71 1000.0
20260902113203 80 120 4.0 6.0 0.00 0.00 0.00 71 1000.0
20260902112704 80 118 4.0 6.0 0.00 0.00 0.00 71 1000.0
20260902111203 80 109 3.0 5.0 0.00 0.00 0.00 71 1000.0
20260902110204 80 136 3.0 6.0 0.00 0.00 0.00 72 1000.0
20260902105704 79 134 5.0 6.0 0.00 0.00 0.00 73 1000.0
20260902105204 79 120 5.0 6.0 0.00 0.00 0.00 74 1000.0
20260902104703 79 129 4.0 6.0 0.00 0.00 0.00 74 1000.0
20260902104203 80 130 4.0 5.0 0.00 0.00 0.00 72 1000.0
20260902103704 80 127 4.0 5.0 0.00 0.00 0.00 70 1000.0
20260902102704 81 126 4.0 6.0 0.00 0.00 0.00 68 1000.0
20260902102203 81 138 3.0 6.0 0.00 0.00 0.00 67 1000.0
20260902101204 83 166 6.0 9.0 0.00 0.00 0.00 61 1000.0
20260902100703 83 163 5.0 8.0 0.00 0.00 0.00 60 1000.0
20260902100203 83 177 6.0 8.0 0.00 0.00 0.00 59 1000.0
20260902095703 84 176 5.0 8.0 0.00 0.00 0.00 58 1000.0
20260902094703 84 183 7.0 10.0 0.00 0.00 0.00 58 1000.0
20260902094203 84 181 7.0 12.0 0.00 0.00 0.00 58 1000.0
20260902093703 84 179 6.0 9.0 0.00 0.00 0.00 58 1000.0
20260902093204 84 172 7.0 12.0 0.00 0.00 0.00 58 1000.0
20260902092704 84 175 7.0 10.0 0.00 0.00 0.00 58 1000.0
20260902092204 84 182 7.0 10.0 0.00 0.00 0.00 58 1000.0
20260902091703 84 180 7.0 10.0 0.00 0.00 0.00 58 1000.0
20260902091203 84 189 7.0 10.0 0.00 0.00 0.00 58 1000.0
20260902090204 83 185 9.0 12.0 0.00 0.00 0.00 59 1000.0
20260902085703 82 176 6.0 10.0 0.00 0.00 0.00 62 1000.0
20260902084704 80 168 3.0 6.0 0.00 0.00 0.00 69 1000.0
20260902084203 80 145 3.0 3.0 0.00 0.00 0.00 71 1000.0
20260902083703 80 140 2.0 3.0 0.00 0.00 0.00 73 1000.0
20260902083204 80 118 2.0 5.0 0.00 0.00 0.00 73 1000.0
20260902082704 80 119 5.0 6.0 0.00 0.00 0.00 72 1000.0
20260902082204 80 121 4.0 6.0 0.00 0.00 0.00 69 1000.0
20260902081704 81 142 5.0 7.0 0.00 0.00 0.00 65 1000.0
20260902081203 82 175 4.0 7.0 0.00 0.00 0.00 64 1000.0
20260902080703 81 176 4.0 7.0 0.00 0.00 0.00 66 1000.0
20260902075704 80 152 3.0 5.0 0.00 0.00 0.00 69 1000.0
20260902075204 80 142 3.0 5.0 0.00 0.00 0.00 69 1000.0
20260902074703 80 141 5.0 6.0 0.00 0.00 0.00 67 1000.0
20260902074203 80 134 3.0 5.0 0.00 0.00 0.00 68 1000.0
20260902073704 80 134 3.0 5.0 0.00 0.00 0.00 67 1000.0
20260902073204 81 117 4.0 5.0 0.00 0.00 0.00 63 1000.0
20260902072703 82 130 4.0 6.0 0.00 0.00 0.00 60 1000.0
20260902072203 83 166 5.0 6.0 0.00 0.00 0.00 60 1000.0
20260902071703 82 182 5.0 7.0 0.00 0.00 0.00 62 1000.0
20260902071204 81 175 3.0 6.0 0.00 0.00 0.00 64 1000.0
20260902070703 80 167 2.0 5.0 0.00 0.00 0.00 66 1000.0
20260902065704 80 150 3.0 5.0 0.00 0.00 0.00 71 1000.0
20260902065204 79 136 3.0 6.0 0.00 0.00 0.00 71 1000.0
20260902064703 79 133 5.0 6.0 0.00 0.00 0.00 71 1000.0
20260902064204 80 128 5.0 6.0 0.00 0.00 0.00 70 1000.0
20260902063704 80 124 5.0 6.0 0.00 0.00 0.00 68 1000.0
20260902063204 80 129 3.0 5.0 0.00 0.00 0.00 68 1000.0
20260902062704 80 135 3.0 3.0 0.00 0.00 0.00 68 1000.0
20260902061704 81 129 5.0 7.0 0.00 0.00 0.00 64 1000.0
20260902060704 81 134 5.0 6.0 0.00 0.00 0.00 63 1000.0
20260902060204 81 148 5.0 7.0 0.00 0.00 0.00 65 1000.0
20260902055204 79 129 7.0 9.0 0.00 0.00 0.00 74 1000.0
20260902054703 80 126 6.0 8.0 0.00 0.00 0.00 74 1000.0
20260902054203 80 122 5.0 6.0 0.00 0.00 0.00 72 1000.0
20260902053703 80 133 5.0 6.0 0.00 0.00 0.00 73 1000.0
20260902053203 80 130 5.0 6.0 0.00 0.00 0.00 72 1000.0
20260902052704 80 127 5.0 6.0 0.00 0.00 0.00 70 1000.0
20260902052204 80 125 5.0 6.0 0.00 0.00 0.00 70 1000.0
20260902051703 81 129 5.0 6.0 0.00 0.00 0.00 70 1000.0
20260902051204 81 133 5.0 5.0 0.00 0.00 0.00 69 1000.0
20260902050704 81 137 5.0 5.0 0.00 0.00 0.00 71 1000.0
20260902050203 81 130 5.0 6.0 0.00 0.00 0.00 71 1000.0
20260902045703 81 125 5.0 6.0 0.00 0.00 0.00 70 1000.0
20260902045204 81 127 5.0 6.0 0.00 0.00 0.00 71 1000.0
20260902044204 83 119 3.0 5.0 0.00 0.00 0.00 68 1000.0
20260902043204 84 128 3.0 6.0 0.00 0.00 0.00 63 1000.0
20260902042703 84 136 3.0 3.0 0.00 0.00 0.00 62 1000.0
20260902042203 84 148 2.0 3.0 0.00 0.00 0.00 63 1000.0
20260902041204 83 144 2.0 2.0 0.00 0.00 0.00 69 1000.0
20260902040704 83 128 2.0 3.0 0.00 0.00 0.00 67 1000.0
20260902040203 84 133 3.0 3.0 0.00 0.00 0.00 67 1000.0
20260902035704 84 145 3.0 5.0 0.00 0.00 0.00 65 1000.0
20260902035204 84 140 3.0 5.0 0.00 0.00 0.00 66 1000.0
20260902034704 84 138 3.0 5.0 0.00 0.00 0.00 65 1000.0
20260902034203 85 138 5.0 5.0 0.00 0.00 0.00 64 1000.0
20260902033703 84 133 5.0 5.0 0.00 0.00 0.00 65 1000.0
20260902032704 84 116 5.0 6.0 0.00 0.00 0.00 68 1000.0
20260902032204 84 139 5.0 6.0 0.00 0.00 0.00 66 1000.0
20260902031203 86 122 5.0 6.0 0.00 0.00 0.00 61 1000.0
20260902030703 86 123 5.0 6.0 0.00 0.00 0.00 59 1000.0
20260902030203 87 130 3.0 5.0 0.00 0.00 0.00 58 1000.0
20260902025704 87 123 3.0 5.0 0.00 0.00 0.00 58 1000.0
20260902025204 87 131 3.0 5.0 0.00 0.00 0.00 57 1000.0
20260902024704 88 118 3.0 5.0 0.00 0.00 0.00 57 1000.0
20260902024203 88 117 3.0 5.0 0.00 0.00 0.00 57 1000.0
20260902023203 88 126 3.0 5.0 0.00 0.00 0.00 56 1000.0
20260902022704 89 117 5.0 6.0 0.00 0.00 0.00 55 1000.0
20260902021203 89 115 5.0 6.0 0.00 0.00 0.00 54 1000.0
20260902020704 89 112 3.0 5.0 0.00 0.00 0.00 53 1000.0
20260902020203 90 114 4.0 6.0 0.00 0.00 0.00 52 1000.0
20260902015704 90 129 5.0 6.0 0.00 0.00 0.00 51 1000.0
20260902014703 90 131 4.0 6.0 0.00 0.00 0.00 50 1000.0
20260902014204 91 97 3.0 5.0 0.00 0.00 0.00 49 1000.0
20260902013704 91 108 3.0 5.0 0.00 0.00 0.00 49 1000.0
20260902013204 92 88 2.0 5.0 0.00 0.00 0.00 48 1000.0
20260902012204 92 89 3.0 6.0 0.00 0.00 0.00 47 1000.0
20260902011704 92 112 2.0 5.0 0.00 0.00 0.00 47 1000.0
20260902011203 93 73 1.0 3.0 0.00 0.00 0.00 46 1000.0
20260902010703 93 78 1.0 5.0 0.00 0.00 0.00 46 1000.0
20260902010203 93 70 2.0 6.0 0.00 0.00 0.00 46 1000.0
20260902005703 93 84 1.0 5.0 0.00 0.00 0.00 45 1000.0
20260902005203 94 91 4.0 7.0 0.00 0.00 0.00 44 1000.0
20260902004704 94 120 1.0 3.0 0.00 0.00 0.00 43 1000.0
20260902004204 95 82 1.0 3.0 0.00 0.00 0.00 42 1000.0
20260902003704 95 89 2.0 3.0 0.00 0.00 0.00 42 1000.0
20260902003203 95 104 2.0 7.0 0.00 0.00 0.00 41 1000.0
20260902002704 95 101 4.0 8.0 0.00 0.00 0.00 41 1000.0
20260902002204 95 70 3.0 10.0 0.00 0.00 0.00 41 1000.0
20260902001703 96 106 4.0 7.0 0.00 0.00 0.00 39 1000.0
20260902001203 96 96 3.0 7.0 0.00 0.00 0.00 38 1000.0
20260902000704 97 90 2.0 5.0 0.00 0.00 0.00 35 1000.0
20260902000204 98 118 3.0 5.0 0.00 0.00 0.00 32 1000.0
20260901235204 98 165 3.0 5.0 0.00 0.00 0.00 31 1000.0
20260901234704 98 134 3.0 5.0 0.00 0.00 0.00 31 1000.0
20260901234203 99 144 3.0 6.0 0.00 0.00 0.00 31 1000.0
20260901233703 98 169 5.0 7.0 0.00 0.00 0.00 30 1000.0
20260901233203 98 133 5.0 6.0 0.00 0.00 0.00 31 1000.0
20260901232703 99 142 5.0 7.0 0.00 0.00 0.00 30 1000.0
20260901232203 99 138 4.0 7.0 0.00 0.00 0.00 30 1000.0
20260901231704 99 153 6.0 9.0 0.00 0.00 0.00 30 1000.0
20260901231204 99 163 5.0 7.0 0.00 0.00 0.00 31 1000.0
20260901230704 99 163 1.0 6.0 0.00 0.00 0.00 30 1000.0
20260901230204 99 122 3.0 5.0 0.00 0.00 0.00 31 1000.0
20260901225203 100 108 4.0 7.0 0.00 0.00 0.00 29 1000.0
20260901224704 101 355 0.0 1.0 0.00 0.00 0.00 29 1000.0
20260901224204 101 341 2.0 3.0 0.00 0.00 0.00 28 1000.0
20260901223704 101 337 1.0 2.0 0.00 0.00 0.00 28 1000.0
20260901223204 101 282 0.0 3.0 0.00 0.00 0.00 28 1000.0
20260901222703 101 282 2.0 5.0 0.00 0.00 0.00 28 1000.0
20260901221703 99 11 1.0 2.0 0.00 0.00 0.00 30 1000.0
20260901221203 99 77 1.0 2.0 0.00 0.00 0.00 30 1000.0
20260901220704 100 98 3.0 7.0 0.00 0.00 0.00 30 1000.0
20260901220204 100 104 5.0 9.0 0.00 0.00 0.00 29 1000.0
20260901215703 100 104 4.0 7.0 0.00 0.00 0.00 29 1000.0
20260901215204 100 59 3.0 9.0 0.00 0.00 0.00 29 1000.0
20260901214704 100 85 3.0 7.0 0.00 0.00 0.00 29 1000.0
20260901214204 100 109 2.0 5.0 0.00 0.00 0.00 30 1000.0
20260901213704 99 180 3.0 7.0 0.00 0.00 0.00 30 1000.0
20260901213204 100 121 6.0 8.0 0.00 0.00 0.00 29 1000.0
20260901212703 100 125 6.0 8.0 0.00 0.00 0.00 28 1000.0
20260901212203 101 276 1.0 6.0 0.00 0.00 0.00 29 1000.0
20260901211204 100 103 2.0 6.0 0.00 0.00 0.00 29 1000.0
20260901210703 100 55 3.0 6.0 0.00 0.00 0.00 29 1000.0
20260901210203 101 81 0.0 2.0 0.00 0.00 0.00 29 1000.0
20260901205704 101 252 1.0 8.0 0.00 0.00 0.00 28 1000.0
20260901205205 101 266 2.0 7.0 0.00 0.00 0.00 28 1000.0
20260901204704 101 261 1.0 5.0 0.00 0.00 0.00 27 1000.0
20260901203704 101 337 3.0 6.0 0.00 0.00 0.00 28 1000.0
20260901203204 101 299 3.0 9.0 0.00 0.00 0.00 28 1000.0
20260901202704 101 289 4.0 9.0 0.00 0.00 0.00 27 1000.0
20260901202204 101 310 2.0 7.0 0.00 0.00 0.00 28 1000.0
20260901201703 100 180 2.0 3.0 0.00 0.00 0.00 29 1000.0
20260901201204 100 193 0.0 5.0 0.00 0.00 0.00 29 1000.0
20260901200703 100 116 2.0 6.0 0.00 0.00 0.00 29 1000.0
20260901200204 100 127 3.0 8.0 0.00 0.00 0.00 30 1000.0
20260901195704 99 150 5.0 8.0 0.00 0.00 0.00 30 1000.0
20260901195203 99 160 5.0 7.0 0.00 0.00 0.00 30 1000.0